COSMOS 1375 DEB, 16375

Orbit data source: Space-Track

COSMOS 1375 DEB, 16375 is space debris in LEO originally from a launch on Sun, 06 Jun 1982 UTC launched from the Plesetsk Missile And Space Complex (PKMTR). Debris objects in space refer to the collection of defunct objects orbiting the Earth. Examples of debris include non-operational satellites, rocket bodies, and fragments generated from explosions, collisions, or faulty payload assembly.

Loading next visibility...
Identifier
16375, 1982-055P
Orbit
LEO
Country
Flag of CISCIS
Related business
Manufacturer
Unknown
Mission
Spacecraft
Bus & Motor
Unknown
Mass
Unknown
Launch date (UTC)
1982-06-06 (44 years ago)
Launch vehicle
Unknown
Launch site
Plesetsk Missile And Space Complex (PKMTR)
Object type
Payload
Rocket body
Debris
Shape & HBR
Unknown shape, 0.2 m
Radar Cross Section
Medium (>0.1 m² and <1 m²)

Expand to show TLE details & history
Last TLE update: 2 days ago

TLE from 2 days ago
0 COSMOS 1375 DEB
1 16375U 82055P   26171.36201573 -.00000009  00000-0  69660-4 0  9997
2 16375  65.8338 102.5498 0022060 165.5697 280.7725 13.80515180 48459
Epoch: 2026-06-20T08:41Z
TLE epoch observation values (Epoch: 2026-06-20T08:41:18.159Z)
Latitude
65.65062°
Longitude
144.16588°
Altitude
969.497 km
Speed
7.375 km/s
True Right ascension
12h 12m 16s
True Declination
65° 31' 30"
Sunlit
Object was in daylight at epoch
Visualization orbit readout
Latitude
Unknown
Longitude
Unknown
Altitude
Unknown
Speed
Unknown
Apparent Right ascension
Unknown
Apparent Declination
Unknown
Sunlit
N/A
Visualization observer readout
Local Sidereal Time
02:00:10
Azimuth
Unknown
Elevation
Unknown
Doppler factor
Unknown
Orbital elements
Apogee altitude
976.762 km
Perigee altitude
944.384 km
Semi-major axis
7,338.71 km
Eccentricity
0.00221
Inclination
65.8338°
RAAN
102.5498°
Arg. of periapsis
165.5697°
True anomaly
280.52404°
Mean anomaly
280.7725°
Eccentric anomaly
280.64828°
Mean motion
3.45234 °/min
Orbital period
104.28 mins
BSTAR
0.00006966
Loading maneuver chart data...
Computing Atmospheric mass density...
Loading historical data...
Loading historical data...
Loading historical data...
Loading historical data...
Loading historical data...
Loading historical data...
Loading historical data...

Documentation

Showing up to 5 results
|